Regional Weather Roundup
Issued by NWS

Home | Current Version | Previous Version | Text Only | Print | Product List | Glossary On
Versions: 1 2 3 4 5 6 7 8 9 10 11 12 13 14 15 16 17 18 19 20 21 22 23 24 25 26 27 28 29 30 31 32 33 34 35 36 37 38 39 40 41 42 43 44 45 46 47 48 49 50
464
ASUS44 KLIX 250510
RWRLA
LOUISIANA WEATHER ROUNDUP
NATIONAL WEATHER SERVICE NEW ORLEANS LA
1100 PM CST WED DEC 24 2014

NOTE: "FAIR" INDICATES FEW OR NO CLOUDS BELOW 12,000 FEET WITH NO
      SIGNIFICANT WEATHER AND/OR OBSTRUCTIONS TO VISIBILITY.
      SKY/WX - SKY CONDITION AND SIGNIFICANT WEATHER.
      TMP - AIR TEMPERATURE.    DP   - DEWPOINT TEMPERATURE.
      RH  - RELATIVE HUMIDITY.  PRES - PRESSURE.
      HX  - HEAT INDEX.         WCI  - WIND CHILL INDEX.

*  THESE STATIONS ARE NOT NWS OR FAA STATIONS AND ARE NOT UNDER
   NWS QUALITY CONTROL.

LAZ040-048-061>063-065-066-069-250600-
SOUTHEAST LOUISIANA

CITY           SKY/WX    TMP DP  RH WIND       PRES   REMARKS
N.O. AUDUBON   NOT AVBL
N.O. INTL ARPT MOCLDY    48  35  60 W13       30.14R
N.O. LAKEFRONT PTCLDY    51  36  56 NW16      30.14R
N.O. DOWNTOWN* CLOUDY    50  30  46 W5        30.14R
SLIDELL        CLEAR     38  34  85 CALM      30.12R
BATON ROUGE    CLEAR     42  36  79 W3        30.14R
BOOTHVILLE     CLOUDY    49  37  63 NW9       30.14R
BELLE CHASSE   CLOUDY    49  32  52 W5        30.13R
BOGALUSA*        N/A     39  35  87 W3        30.14R
GALLIANO*      PTCLDY    45  35  68 MISG      30.15S
NEW ROADS*     FAIR      41  37  84 SW5       30.14S
GONZALES*      FAIR      43  37  79 CALM      30.15R
HAMMOND*       NOT AVBL
HOUMA*         CLEAR     44  35  71 W3        30.16R
PORT FOURCHON* CLOUDY    50  36  57 NW13G20   30.18S

$$

LAZ041-044-053-054-250600-
SOUTHWEST LOUISIANA

CITY           SKY/WX    TMP DP  RH WIND       PRES   REMARKS
LAKE CHARLES   CLEAR     37  36  96 CALM      30.15R
LAFAYETTE      CLEAR     39  35  86 CALM      30.15S
PATTERSON      CLEAR     43  36  75 W3        30.17S
SALT POINT       N/A     58  37  45 NW5       30.16R
NEW IBERIA     CLEAR     39  36  89 CALM      30.16S
CHENAULT AIRPK CLEAR     37  36  99 CALM      30.15S

$$

LAZ027-028-250600-
CENTRAL LOUISIANA

CITY           SKY/WX    TMP DP  RH WIND       PRES   REMARKS
FORT POLK      CLEAR     35  34  97 S2        30.12S
ALEXANDRIA INT FAIR      36  34  92 SE3       30.12R
ALEXANDRIA     CLEAR     32  32 100 CALM      30.13R

$$

LAZ001-002-250600-
NORTHWEST LOUISIANA

CITY           SKY/WX    TMP DP  RH WIND       PRES   REMARKS
SHREVEPORT     CLEAR     33  31  92 CALM      30.08S
BARKSDALE AFB  CLEAR     30  28  92 SE6       30.09S WCI  24
DTN SHREVEPORT CLEAR     33  30  88 CALM      30.09S

$$

LAZ014-016-250600-
NORTHEAST LOUISIANA

CITY           SKY/WX    TMP DP  RH WIND       PRES   REMARKS
MONROE         CLEAR     39  33  79 SW5       30.11S
TALLULAH       CLOUDY    43  33  68 W8        30.10S

$$




USA.gov is the U.S. government's official web portal to all federal, state and local government web resources and services.